Time,TemperatureF,DewpointF,PressureIn,WindDirection,WindDirectionDegrees,WindSpeedMPH,WindSpeedGustMPH,Humidity,HourlyPrecipIn,Conditions,Clouds,dailyrainin,SoftwareType,DateUTC
2013-03-04 00:00:00,27.0,16.1,30.06,West,280,3.0,3.0,63,0.00,,OVC080,0.00,VWS V14.01,2013-03-04 05:00:00,
2013-03-04 00:05:00,27.3,16.0,30.06,WNW,282,1.0,3.0,62,0.00,,OVC080,0.00,VWS V14.01,2013-03-04 05:05:00,
2013-03-04 00:10:00,27.6,15.9,30.06,West,269,1.0,1.0,61,0.00,,OVC080,0.00,VWS V14.01,2013-03-04 05:10:00,
2013-03-04 00:15:00,28.0,15.9,30.06,WNW,294,2.0,3.0,60,0.00,,OVC080,0.00,VWS V14.01,2013-03-04 05:15:00,
2013-03-04 00:20:00,28.0,15.9,30.06,WNW,289,0.0,1.0,60,0.00,,OVC080,0.00,VWS V14.01,2013-03-04 05:20:00,
2013-03-04 00:25:00,27.8,15.4,30.07,NNW,334,0.0,0.0,59,0.00,,OVC080,0.00,VWS V14.01,2013-03-04 05:25:00,
2013-03-04 00:30:00,27.6,15.2,30.07,NE,34,0.0,0.0,59,0.00,,OVC080,0.00,VWS V14.01,2013-03-04 05:30:00,
2013-03-04 00:35:00,27.5,15.4,30.07,ENE,66,1.0,2.0,60,0.00,,OVC080,0.00,VWS V14.01,2013-03-04 05:35:00,
2013-03-04 00:40:00,27.3,15.6,30.07,South,172,3.0,5.0,61,0.00,,OVC080,0.00,VWS V14.01,2013-03-04 05:40:00,
2013-03-04 00:45:00,26.9,16.0,30.07,SW,228,1.0,1.0,63,0.00,,OVC080,0.00,VWS V14.01,2013-03-04 05:45:00,
2013-03-04 00:50:00,26.9,15.6,30.07,SW,232,1.0,1.0,62,0.00,,OVC080,0.00,VWS V14.01,2013-03-04 05:50:00,
2013-03-04 00:55:00,27.3,15.6,30.07,West,266,0.0,6.0,61,0.00,,OVC080,0.00,VWS V14.01,2013-03-04 05:55:00,
2013-03-04 01:00:00,27.8,15.7,30.07,NE,56,1.0,1.0,60,0.00,,OVC080,0.00,VWS V14.01,2013-03-04 06:00:00,
2013-03-04 01:05:00,28.0,15.5,30.07,South,191,0.0,0.0,59,0.00,,OVC080,0.00,VWS V14.01,2013-03-04 06:05:00,
2013-03-04 01:10:00,28.1,15.6,30.07,SSE,168,0.0,1.0,59,0.00,,OVC080,0.00,VWS V14.01,2013-03-04 06:10:00,
2013-03-04 01:15:00,27.8,15.4,30.07,SSE,163,0.0,0.0,59,0.00,,OVC080,0.00,VWS V14.01,2013-03-04 06:15:00,
2013-03-04 01:20:00,27.4,15.0,30.07,SE,132,0.0,1.0,59,0.00,,OVC080,0.00,VWS V14.01,2013-03-04 06:20:00,
2013-03-04 01:25:00,27.1,15.1,30.07,SE,133,0.0,1.0,60,0.00,,OVC080,0.00,VWS V14.01,2013-03-04 06:25:00,
2013-03-04 01:30:00,26.5,15.3,30.07,SE,133,0.0,0.0,62,0.00,,OVC080,0.00,VWS V14.01,2013-03-04 06:30:00,
2013-03-04 01:35:00,26.1,15.2,30.07,SE,132,0.0,1.0,63,0.00,,OVC080,0.00,VWS V14.01,2013-03-04 06:35:00,
2013-03-04 01:40:00,25.7,15.2,30.08,SSE,148,0.0,0.0,64,0.00,,OVC080,0.00,VWS V14.01,2013-03-04 06:40:00,
2013-03-04 01:45:00,25.7,15.2,30.08,West,265,0.0,1.0,64,0.00,,OVC080,0.00,VWS V14.01,2013-03-04 06:45:00,
2013-03-04 01:50:00,26.3,15.1,30.08,NW,322,1.0,2.0,62,0.00,,OVC080,0.00,VWS V14.01,2013-03-04 06:50:00,
2013-03-04 01:56:00,27.1,15.1,30.08,WNW,297,1.0,3.0,60,0.00,,OVC080,0.00,VWS V14.01,2013-03-04 06:56:00,
2013-03-04 02:01:00,27.7,14.9,30.08,WNW,299,1.0,1.0,58,0.00,,OVC080,0.00,VWS V14.01,2013-03-04 07:01:00,
2013-03-04 02:06:00,27.7,14.9,30.08,NE,55,2.0,2.0,58,0.00,,OVC080,0.00,VWS V14.01,2013-03-04 07:06:00,
2013-03-04 02:11:00,27.9,14.6,30.08,West,266,1.0,3.0,57,0.00,,OVC080,0.00,VWS V14.01,2013-03-04 07:11:00,
2013-03-04 02:16:00,28.1,14.4,30.08,ENE,65,1.0,1.0,56,0.00,,OVC080,0.00,VWS V14.01,2013-03-04 07:16:00,
2013-03-04 02:21:00,28.2,14.5,30.09,WNW,297,1.0,2.0,56,0.00,,OVC080,0.00,VWS V14.01,2013-03-04 07:21:00,
2013-03-04 02:26:00,28.4,14.3,30.09,NNW,333,2.0,5.0,55,0.00,,OVC080,0.00,VWS V14.01,2013-03-04 07:26:00,
2013-03-04 02:31:00,28.7,14.2,30.09,WNW,288,1.0,3.0,54,0.00,,OVC080,0.00,VWS V14.01,2013-03-04 07:31:00,
2013-03-04 02:36:00,28.6,14.1,30.09,North,10,0.0,2.0,54,0.00,,OVC080,0.00,VWS V14.01,2013-03-04 07:36:00,
2013-03-04 02:41:00,28.6,14.1,30.09,WNW,292,0.0,3.0,54,0.00,,OVC080,0.00,VWS V14.01,2013-03-04 07:41:00,
2013-03-04 02:46:00,28.5,14.0,30.09,NNE,23,0.0,2.0,54,0.00,,OVC080,0.00,VWS V14.01,2013-03-04 07:46:00,
2013-03-04 02:51:00,28.6,14.1,30.09,NNE,18,2.0,4.0,54,0.00,,OVC080,0.00,VWS V14.01,2013-03-04 07:51:00,
2013-03-04 02:56:00,28.7,14.2,30.09,NNE,27,1.0,2.0,54,0.00,,OVC080,0.00,VWS V14.01,2013-03-04 07:56:00,
2013-03-04 03:01:00,28.6,14.1,30.09,NNW,338,2.0,5.0,54,0.00,,OVC080,0.00,VWS V14.01,2013-03-04 08:01:00,
2013-03-04 03:06:00,28.8,14.3,30.09,NW,305,1.0,3.0,54,0.00,,OVC080,0.00,VWS V14.01,2013-03-04 08:06:00,
2013-03-04 03:11:00,28.6,14.1,30.09,NE,46,0.0,1.0,54,0.00,,OVC080,0.00,VWS V14.01,2013-03-04 08:11:00,
2013-03-04 03:16:00,28.5,14.0,30.08,East,91,2.0,3.0,54,0.00,,OVC080,0.00,VWS V14.01,2013-03-04 08:16:00,
2013-03-04 03:21:00,28.5,14.0,30.08,WNW,301,1.0,2.0,54,0.00,,OVC080,0.00,VWS V14.01,2013-03-04 08:21:00,
2013-03-04 03:26:00,28.5,14.0,30.08,ESE,115,1.0,1.0,54,0.00,,OVC080,0.00,VWS V14.01,2013-03-04 08:26:00,
2013-03-04 03:31:00,28.6,14.1,30.08,NW,317,1.0,4.0,54,0.00,,OVC080,0.00,VWS V14.01,2013-03-04 08:31:00,
2013-03-04 03:36:00,28.6,14.1,30.08,WNW,283,4.0,6.0,54,0.00,,OVC080,0.00,VWS V14.01,2013-03-04 08:36:00,
2013-03-04 03:41:00,28.7,14.2,30.08,WNW,290,1.0,1.0,54,0.00,,OVC080,0.00,VWS V14.01,2013-03-04 08:41:00,
2013-03-04 03:46:00,28.6,14.1,30.09,WSW,256,0.0,2.0,54,0.00,,OVC080,0.00,VWS V14.01,2013-03-04 08:46:00,
2013-03-04 03:51:00,28.4,14.3,30.09,WNW,294,0.0,1.0,55,0.00,,OVC080,0.00,VWS V14.01,2013-03-04 08:51:00,
2013-03-04 03:56:00,28.5,14.4,30.09,SSW,212,1.0,3.0,55,0.00,,OVC080,0.00,VWS V14.01,2013-03-04 08:56:00,
2013-03-04 04:01:00,28.6,14.5,30.09,WNW,284,3.0,5.0,55,0.00,,OVC080,0.00,VWS V14.01,2013-03-04 09:01:00,
2013-03-04 04:06:00,28.7,14.6,30.10,North,354,0.0,3.0,55,0.00,,OVC080,0.00,VWS V14.01,2013-03-04 09:06:00,
2013-03-04 04:11:00,28.7,14.6,30.10,NNE,13,1.0,1.0,55,0.00,,OVC080,0.00,VWS V14.01,2013-03-04 09:11:00,
2013-03-04 04:16:00,28.8,14.7,30.10,WNW,293,0.0,1.0,55,0.00,,OVC080,0.00,VWS V14.01,2013-03-04 09:16:00,
2013-03-04 04:21:00,28.6,14.5,30.10,SW,226,1.0,1.0,55,0.00,,OVC080,0.00,VWS V14.01,2013-03-04 09:21:00,
2013-03-04 04:26:00,28.6,14.5,30.11,WSW,255,0.0,2.0,55,0.00,,OVC080,0.00,VWS V14.01,2013-03-04 09:26:00,
2013-03-04 04:31:00,28.5,14.4,30.11,West,269,0.0,0.0,55,0.00,,OVC080,0.00,VWS V14.01,2013-03-04 09:31:00,
2013-03-04 04:36:00,28.2,14.5,30.11,WNW,300,0.0,0.0,56,0.00,,OVC080,0.00,VWS V14.01,2013-03-04 09:36:00,
2013-03-04 04:41:00,27.9,14.2,30.11,South,191,0.0,0.0,56,0.00,,OVC080,0.00,VWS V14.01,2013-03-04 09:41:00,
2013-03-04 04:46:00,27.7,14.1,30.12,South,191,0.0,0.0,56,0.00,,OVC080,0.00,VWS V14.01,2013-03-04 09:46:00,
2013-03-04 04:51:00,27.3,14.1,30.12,SE,131,0.0,1.0,57,0.00,,OVC080,0.00,VWS V14.01,2013-03-04 09:51:00,
2013-03-04 04:56:00,27.1,13.9,30.12,SE,131,0.0,0.0,57,0.00,,OVC080,0.00,VWS V14.01,2013-03-04 09:56:00,
2013-03-04 05:01:00,27.0,14.2,30.12,ESE,110,1.0,1.0,58,0.00,,OVC080,0.00,VWS V14.01,2013-03-04 10:01:00,
2013-03-04 05:06:00,26.5,14.1,30.12,South,176,0.0,0.0,59,0.00,,OVC080,0.00,VWS V14.01,2013-03-04 10:06:00,
2013-03-04 05:11:00,26.0,14.4,30.12,South,176,0.0,0.0,61,0.00,,OVC080,0.00,VWS V14.01,2013-03-04 10:11:00,
2013-03-04 05:16:00,25.5,14.3,30.12,South,176,0.0,0.0,62,0.00,,OVC080,0.00,VWS V14.01,2013-03-04 10:16:00,
2013-03-04 05:21:00,25.0,14.2,30.12,West,271,0.0,1.0,63,0.00,,OVC080,0.00,VWS V14.01,2013-03-04 10:21:00,
2013-03-04 05:26:00,24.7,14.3,30.13,West,272,0.0,0.0,64,0.00,,OVC080,0.00,VWS V14.01,2013-03-04 10:26:00,
2013-03-04 05:31:00,24.4,14.3,30.13,South,184,0.0,1.0,65,0.00,,OVC080,0.00,VWS V14.01,2013-03-04 10:31:00,
2013-03-04 05:36:00,24.2,14.5,30.13,SSE,159,0.0,0.0,66,0.00,,OVC080,0.00,VWS V14.01,2013-03-04 10:36:00,
2013-03-04 05:41:00,23.9,14.6,30.13,SSE,159,0.0,0.0,67,0.00,,OVC080,0.00,VWS V14.01,2013-03-04 10:41:00,
2013-03-04 05:46:00,23.6,14.6,30.14,South,181,0.0,0.0,68,0.00,,OVC080,0.00,VWS V14.01,2013-03-04 10:46:00,
2013-03-04 05:51:00,23.7,14.7,30.14,SE,134,2.0,2.0,68,0.00,,OVC080,0.00,VWS V14.01,2013-03-04 10:51:00,
2013-03-04 05:56:00,23.7,15.0,30.14,ESE,120,0.0,1.0,69,0.00,,OVC080,0.00,VWS V14.01,2013-03-04 10:56:00,
2013-03-04 06:01:00,24.7,15.3,30.14,West,278,1.0,1.0,67,0.00,,OVC080,0.00,VWS V14.01,2013-03-04 11:01:00,
2013-03-04 06:06:00,25.5,15.0,30.15,WSW,249,1.0,1.0,64,0.00,,OVC080,0.00,VWS V14.01,2013-03-04 11:06:00,
2013-03-04 06:11:00,25.8,15.3,30.15,SSW,200,0.0,1.0,64,0.00,,OVC080,0.00,VWS V14.01,2013-03-04 11:11:00,
2013-03-04 06:16:00,25.5,15.0,30.15,SE,145,1.0,1.0,64,0.00,,OVC080,0.00,VWS V14.01,2013-03-04 11:16:00,
2013-03-04 06:21:00,25.1,15.0,30.15,SSE,156,0.0,0.0,65,0.00,,OVC080,0.00,VWS V14.01,2013-03-04 11:21:00,
2013-03-04 06:26:00,24.7,15.0,30.15,SSE,156,0.0,0.0,66,0.00,,OVC080,0.00,VWS V14.01,2013-03-04 11:26:00,
2013-03-04 06:31:00,24.2,14.8,30.15,SSE,156,0.0,0.0,67,0.00,,OVC080,0.00,VWS V14.01,2013-03-04 11:31:00,
2013-03-04 06:36:00,23.8,14.8,30.15,West,264,1.0,1.0,68,0.00,,OVC080,0.00,VWS V14.01,2013-03-04 11:36:00,
2013-03-04 06:41:00,23.3,14.6,30.16,West,263,0.0,1.0,69,0.00,,OVC080,0.00,VWS V14.01,2013-03-04 11:41:00,
2013-03-04 06:46:00,23.0,14.7,30.16,West,262,0.0,0.0,70,0.00,,OVC080,0.00,VWS V14.01,2013-03-04 11:46:00,
2013-03-04 06:51:00,22.6,14.3,30.16,West,262,0.0,1.0,70,0.00,,OVC080,0.00,VWS V14.01,2013-03-04 11:51:00,
2013-03-04 06:56:00,22.3,14.0,30.16,West,263,0.0,0.0,70,0.00,,OVC080,0.00,VWS V14.01,2013-03-04 11:56:00,
2013-03-04 07:01:00,22.1,14.5,30.17,West,262,0.0,0.0,72,0.00,,OVC080,0.00,VWS V14.01,2013-03-04 12:01:00,
2013-03-04 07:06:00,21.8,14.2,30.17,West,262,0.0,1.0,72,0.00,,OVC080,0.00,VWS V14.01,2013-03-04 12:06:00,
2013-03-04 07:11:00,21.6,14.3,30.17,WNW,287,0.0,1.0,73,0.00,,OVC080,0.00,VWS V14.01,2013-03-04 12:11:00,
2013-03-04 07:16:00,21.5,14.2,30.17,NE,44,0.0,1.0,73,0.00,,OVC080,0.00,VWS V14.01,2013-03-04 12:16:00,
2013-03-04 07:21:00,21.4,14.4,30.17,NE,44,1.0,1.0,74,0.00,,OVC080,0.00,VWS V14.01,2013-03-04 12:21:00,
2013-03-04 07:26:00,21.5,14.5,30.17,NE,43,0.0,0.0,74,0.00,,OVC080,0.00,VWS V14.01,2013-03-04 12:26:00,
2013-03-04 07:31:00,21.9,14.9,30.18,South,171,0.0,1.0,74,0.00,,OVC080,0.00,VWS V14.01,2013-03-04 12:31:00,
2013-03-04 07:36:00,22.9,15.6,30.18,West,281,0.0,0.0,73,0.00,,OVC080,0.00,VWS V14.01,2013-03-04 12:36:00,
2013-03-04 07:41:00,24.4,16.0,30.18,NE,44,0.0,1.0,70,0.00,,OVC080,0.00,VWS V14.01,2013-03-04 12:41:00,
2013-03-04 07:46:00,25.9,16.5,30.18,West,264,0.0,0.0,67,0.00,,OVC080,0.00,VWS V14.01,2013-03-04 12:46:00,
2013-03-04 07:51:00,26.4,16.2,30.18,West,262,0.0,0.0,65,0.00,,OVC080,0.00,VWS V14.01,2013-03-04 12:51:00,
2013-03-04 07:56:00,26.9,16.4,30.19,WSW,240,0.0,1.0,64,0.00,,OVC080,0.00,VWS V14.01,2013-03-04 12:56:00,
2013-03-04 08:01:00,27.3,16.0,30.19,NNE,26,1.0,1.0,62,0.00,,OVC080,0.00,VWS V14.01,2013-03-04 13:01:00,
2013-03-04 08:06:00,27.8,16.1,30.19,East,94,1.0,1.0,61,0.00,,OVC080,0.00,VWS V14.01,2013-03-04 13:06:00,
2013-03-04 08:11:00,28.2,16.1,30.19,ESE,121,1.0,2.0,60,0.00,,OVC080,0.00,VWS V14.01,2013-03-04 13:11:00,
2013-03-04 08:16:00,28.3,16.2,30.19,ESE,118,0.0,1.0,60,0.00,,OVC080,0.00,VWS V14.01,2013-03-04 13:16:00,
2013-03-04 08:21:00,28.9,16.0,30.19,East,83,0.0,0.0,58,0.00,,OVC080,0.00,VWS V14.01,2013-03-04 13:21:00,
2013-03-04 08:26:00,29.2,16.3,30.19,NE,48,0.0,1.0,58,0.00,,OVC080,0.00,VWS V14.01,2013-03-04 13:26:00,
2013-03-04 08:31:00,29.7,16.4,30.19,SSW,207,0.0,0.0,57,0.00,,OVC080,0.00,VWS V14.01,2013-03-04 13:31:00,
2013-03-04 08:36:00,30.3,16.5,30.19,WNW,282,2.0,2.0,56,0.00,,OVC080,0.00,VWS V14.01,2013-03-04 13:36:00,
2013-03-04 08:41:00,30.9,16.6,30.19,SW,224,0.0,1.0,55,0.00,,OVC080,0.00,VWS V14.01,2013-03-04 13:41:00,
2013-03-04 08:46:00,31.4,16.7,30.19,WSW,242,1.0,4.0,54,0.00,,OVC080,0.00,VWS V14.01,2013-03-04 13:46:00,
2013-03-04 08:51:00,31.7,17.0,30.19,NW,311,2.0,2.0,54,0.00,,OVC080,0.00,VWS V14.01,2013-03-04 13:51:00,
2013-03-04 08:56:00,32.1,16.9,30.18,West,269,3.0,3.0,53,0.00,,OVC080,0.00,VWS V14.01,2013-03-04 13:56:00,
2013-03-04 09:01:00,32.5,17.3,30.18,WNW,292,1.0,2.0,53,0.00,,OVC080,0.00,VWS V14.01,2013-03-04 14:01:00,
2013-03-04 09:06:00,33.1,17.0,30.19,WNW,288,4.0,6.0,51,0.00,,OVC080,0.00,VWS V14.01,2013-03-04 14:06:00,
2013-03-04 09:11:00,33.6,17.0,30.18,WNW,291,0.0,0.0,50,0.00,,OVC080,0.00,VWS V14.01,2013-03-04 14:11:00,
2013-03-04 09:16:00,34.3,17.1,30.18,WSW,257,2.0,4.0,49,0.00,,OVC080,0.00,VWS V14.01,2013-03-04 14:16:00,
2013-03-04 09:21:00,34.4,17.2,30.19,West,270,2.0,3.0,49,0.00,,OVC080,0.00,VWS V14.01,2013-03-04 14:21:00,
2013-03-04 09:26:00,34.7,17.0,30.19,SSW,198,0.0,1.0,48,0.00,,OVC080,0.00,VWS V14.01,2013-03-04 14:26:00,
2013-03-04 09:31:00,35.3,18.1,30.19,SW,226,0.0,1.0,49,0.00,,OVC080,0.00,VWS V14.01,2013-03-04 14:31:00,
2013-03-04 09:36:00,35.8,17.6,30.19,NW,312,1.0,2.0,47,0.00,,OVC080,0.00,VWS V14.01,2013-03-04 14:36:00,
2013-03-04 09:41:00,36.1,17.3,30.18,NE,45,3.0,3.0,46,0.00,,OVC080,0.00,VWS V14.01,2013-03-04 14:41:00,
2013-03-04 09:46:00,36.5,17.7,30.18,SE,133,2.0,2.0,46,0.00,,OVC080,0.00,VWS V14.01,2013-03-04 14:46:00,
2013-03-04 09:51:00,36.8,17.0,30.18,SE,141,3.0,3.0,44,0.00,,OVC080,0.00,VWS V14.01,2013-03-04 14:51:00,
2013-03-04 09:56:00,36.9,16.5,30.18,SSE,167,0.0,1.0,43,0.00,,OVC080,0.00,VWS V14.01,2013-03-04 14:56:00,
2013-03-04 10:01:00,37.7,17.2,30.18,South,184,2.0,2.0,43,0.00,,OVC080,0.00,VWS V14.01,2013-03-04 15:01:00,
2013-03-04 10:06:00,37.8,16.8,30.18,WNW,285,1.0,1.0,42,0.00,,OVC080,0.00,VWS V14.01,2013-03-04 15:06:00,
2013-03-04 10:11:00,38.0,16.4,30.18,South,169,3.0,5.0,41,0.00,,OVC080,0.00,VWS V14.01,2013-03-04 15:11:00,
2013-03-04 10:16:00,38.2,16.6,30.18,South,172,3.0,5.0,41,0.00,,OVC080,0.00,VWS V14.01,2013-03-04 15:16:00,
2013-03-04 10:21:00,38.7,16.5,30.18,ENE,64,0.0,1.0,40,0.00,,OVC080,0.00,VWS V14.01,2013-03-04 15:21:00,
2013-03-04 10:26:00,39.5,16.6,30.18,WSW,255,4.0,4.0,39,0.00,,OVC080,0.00,VWS V14.01,2013-03-04 15:26:00,
2013-03-04 10:31:00,39.9,15.8,30.18,SSW,198,0.0,1.0,37,0.00,,OVC080,0.00,VWS V14.01,2013-03-04 15:31:00,
2013-03-04 10:36:00,40.7,16.5,30.17,WNW,298,3.0,3.0,37,0.00,,OVC080,0.00,VWS V14.01,2013-03-04 15:36:00,
2013-03-04 10:41:00,41.0,16.1,30.17,NW,305,4.0,4.0,36,0.00,,OVC080,0.00,VWS V14.01,2013-03-04 15:41:00,
2013-03-04 10:46:00,41.3,15.1,30.18,WSW,243,1.0,2.0,34,0.00,,OVC080,0.00,VWS V14.01,2013-03-04 15:46:00,
2013-03-04 10:51:00,41.9,15.6,30.18,WNW,302,3.0,3.0,34,0.00,,OVC080,0.00,VWS V14.01,2013-03-04 15:51:00,
2013-03-04 10:56:00,41.9,16.3,30.18,WSW,239,2.0,3.0,35,0.00,,OVC080,0.00,VWS V14.01,2013-03-04 15:56:00,
2013-03-04 11:01:00,42.0,15.7,30.17,SW,221,7.0,9.0,34,0.00,,OVC080,0.00,VWS V14.01,2013-03-04 16:01:00,
2013-03-04 11:06:00,42.0,15.7,30.17,SSE,153,3.0,8.0,34,0.00,,OVC080,0.00,VWS V14.01,2013-03-04 16:06:00,
2013-03-04 11:11:00,42.4,16.7,30.18,SSW,204,5.0,6.0,35,0.00,,OVC080,0.00,VWS V14.01,2013-03-04 16:11:00,
2013-03-04 11:16:00,42.7,16.3,30.18,ESE,105,1.0,2.0,34,0.00,,OVC080,0.00,VWS V14.01,2013-03-04 16:16:00,
2013-03-04 11:21:00,43.6,15.7,30.18,South,181,1.0,2.0,32,0.00,,OVC080,0.00,VWS V14.01,2013-03-04 16:21:00,
2013-03-04 11:26:00,43.7,18.5,30.18,WSW,257,3.0,5.0,36,0.00,,OVC080,0.00,VWS V14.01,2013-03-04 16:26:00,
2013-03-04 11:31:00,44.2,19.0,30.18,WSW,251,3.0,4.0,36,0.00,,OVC080,0.00,VWS V14.01,2013-03-04 16:31:00,
2013-03-04 11:36:00,44.1,18.2,30.18,SE,132,5.0,5.0,35,0.00,,OVC080,0.00,VWS V14.01,2013-03-04 16:36:00,
2013-03-04 11:41:00,43.8,18.0,30.18,WSW,256,1.0,1.0,35,0.00,,OVC080,0.00,VWS V14.01,2013-03-04 16:41:00,
2013-03-04 11:46:00,44.4,18.5,30.18,SW,224,3.0,5.0,35,0.00,,OVC080,0.00,VWS V14.01,2013-03-04 16:46:00,
2013-03-04 11:51:00,44.5,15.8,30.17,NNW,328,2.0,3.0,31,0.00,,OVC080,0.00,VWS V14.01,2013-03-04 16:51:00,
2013-03-04 11:56:00,44.7,17.4,30.17,South,191,2.0,3.0,33,0.00,,OVC080,0.00,VWS V14.01,2013-03-04 16:56:00,
2013-03-04 12:01:00,45.1,17.7,30.17,SSW,193,5.0,5.0,33,0.00,,OVC080,0.00,VWS V14.01,2013-03-04 17:01:00,
2013-03-04 12:06:00,45.4,15.8,30.17,SSW,207,0.0,1.0,30,0.00,,OVC080,0.00,VWS V14.01,2013-03-04 17:06:00,
2013-03-04 12:11:00,45.9,16.2,30.17,South,186,2.0,3.0,30,0.00,,OVC080,0.00,VWS V14.01,2013-03-04 17:11:00,
2013-03-04 12:16:00,45.8,14.6,30.17,WSW,248,3.0,4.0,28,0.00,,OVC080,0.00,VWS V14.01,2013-03-04 17:16:00,
2013-03-04 12:21:00,46.0,15.5,30.16,West,261,2.0,2.0,29,0.00,,OVC080,0.00,VWS V14.01,2013-03-04 17:21:00,
2013-03-04 12:26:00,46.3,16.6,30.16,SSE,150,0.0,2.0,30,0.00,,OVC080,0.00,VWS V14.01,2013-03-04 17:26:00,
2013-03-04 12:31:00,47.1,15.7,30.16,NW,311,2.0,3.0,28,0.00,,OVC080,0.00,VWS V14.01,2013-03-04 17:31:00,
2013-03-04 12:36:00,47.6,16.1,30.16,SSE,165,5.0,5.0,28,0.00,,OVC080,0.00,VWS V14.01,2013-03-04 17:36:00,
2013-03-04 12:41:00,47.5,15.2,30.15,SW,231,1.0,1.0,27,0.00,,OVC080,0.00,VWS V14.01,2013-03-04 17:41:00,
2013-03-04 12:46:00,48.0,16.5,30.15,WSW,243,4.0,7.0,28,0.00,,OVC080,0.00,VWS V14.01,2013-03-04 17:46:00,
2013-03-04 12:51:00,48.2,17.5,30.15,WSW,239,0.0,2.0,29,0.00,,OVC080,0.00,VWS V14.01,2013-03-04 17:51:00,
2013-03-04 12:56:00,48.6,15.3,30.15,WNW,297,1.0,1.0,26,0.00,,OVC080,0.00,VWS V14.01,2013-03-04 17:56:00,
2013-03-04 13:01:00,49.5,14.2,30.15,ESE,122,1.0,2.0,24,0.00,,OVC080,0.00,VWS V14.01,2013-03-04 18:01:00,
2013-03-04 13:06:00,49.2,14.0,30.14,SW,227,2.0,4.0,24,0.00,,OVC080,0.00,VWS V14.01,2013-03-04 18:06:00,
2013-03-04 13:11:00,49.3,14.1,30.14,WSW,252,3.0,3.0,24,0.00,,OVC080,0.00,VWS V14.01,2013-03-04 18:11:00,
2013-03-04 13:16:00,49.5,15.1,30.14,West,262,1.0,3.0,25,0.00,,OVC080,0.00,VWS V14.01,2013-03-04 18:16:00,
2013-03-04 13:21:00,50.0,15.6,30.13,West,269,2.0,2.0,25,0.00,,OVC080,0.00,VWS V14.01,2013-03-04 18:21:00,
2013-03-04 13:26:00,50.6,14.2,30.13,WSW,255,3.0,3.0,23,0.00,,OVC080,0.00,VWS V14.01,2013-03-04 18:26:00,
2013-03-04 13:29:00,50.8,14.4,30.13,WSW,257,1.0,4.0,23,0.00,,OVC080,0.00,VWS V14.01,2013-03-04 18:29:00,
2013-03-04 13:34:00,51.0,15.5,30.13,SSW,211,4.0,4.0,24,0.00,,OVC080,0.00,VWS V14.01,2013-03-04 18:34:00,
2013-03-04 13:39:00,51.0,14.5,30.12,WSW,250,1.0,2.0,23,0.00,,OVC080,0.00,VWS V14.01,2013-03-04 18:39:00,
2013-03-04 13:44:00,51.3,13.8,30.12,South,177,3.0,3.0,22,0.00,,OVC080,0.00,VWS V14.01,2013-03-04 18:44:00,
2013-03-04 13:49:00,51.0,13.5,30.12,SSW,198,1.0,2.0,22,0.00,,OVC080,0.00,VWS V14.01,2013-03-04 18:49:00,
2013-03-04 13:54:00,51.7,14.1,30.11,WNW,293,2.0,4.0,22,0.00,,OVC080,0.00,VWS V14.01,2013-03-04 18:54:00,
2013-03-04 13:59:00,51.6,15.0,30.11,SW,224,2.0,3.0,23,0.00,,OVC080,0.00,VWS V14.01,2013-03-04 18:59:00,
2013-03-04 14:04:00,51.9,14.3,30.11,SE,146,1.0,2.0,22,0.00,,OVC080,0.00,VWS V14.01,2013-03-04 19:04:00,
2013-03-04 14:09:00,51.9,13.2,30.11,WNW,297,3.0,4.0,21,0.00,,OVC080,0.00,VWS V14.01,2013-03-04 19:09:00,
2013-03-04 14:14:00,52.1,14.4,30.11,West,280,2.0,3.0,22,0.00,,OVC080,0.00,VWS V14.01,2013-03-04 19:14:00,
2013-03-04 14:19:00,52.3,14.6,30.11,SSW,195,2.0,5.0,22,0.00,,OVC080,0.00,VWS V14.01,2013-03-04 19:19:00,
2013-03-04 14:24:00,52.1,13.4,30.10,SW,225,1.0,5.0,21,0.00,,OVC080,0.00,VWS V14.01,2013-03-04 19:24:00,
2013-03-04 14:29:00,52.5,13.7,30.10,SSW,199,6.0,6.0,21,0.00,,OVC080,0.00,VWS V14.01,2013-03-04 19:29:00,
2013-03-04 14:34:00,52.5,11.4,30.10,SSW,212,2.0,2.0,19,0.00,,OVC080,0.00,VWS V14.01,2013-03-04 19:34:00,
2013-03-04 14:39:00,52.7,11.6,30.10,SSW,194,4.0,5.0,19,0.00,,OVC080,0.00,VWS V14.01,2013-03-04 19:39:00,
2013-03-04 14:44:00,53.3,12.1,30.10,WNW,297,0.0,1.0,19,0.00,,OVC080,0.00,VWS V14.01,2013-03-04 19:44:00,
2013-03-04 14:49:00,53.2,13.2,30.10,ESE,120,2.0,5.0,20,0.00,,OVC080,0.00,VWS V14.01,2013-03-04 19:49:00,
2013-03-04 14:54:00,53.0,13.0,30.10,South,183,4.0,4.0,20,0.00,,OVC080,0.00,VWS V14.01,2013-03-04 19:54:00,
2013-03-04 14:59:00,53.0,14.1,30.10,West,264,1.0,3.0,21,0.00,,OVC080,0.00,VWS V14.01,2013-03-04 19:59:00,
2013-03-04 15:04:00,53.3,13.3,30.10,SSW,208,2.0,3.0,20,0.00,,OVC080,0.00,VWS V14.01,2013-03-04 20:04:00,
2013-03-04 15:09:00,53.5,11.1,30.10,South,177,2.0,2.0,18,0.00,,OVC080,0.00,VWS V14.01,2013-03-04 20:09:00,
2013-03-04 15:14:00,53.2,10.8,30.09,SSE,155,2.0,4.0,18,0.00,,OVC080,0.00,VWS V14.01,2013-03-04 20:14:00,
2013-03-04 15:19:00,53.4,11.0,30.10,WNW,301,1.0,2.0,18,0.00,,OVC080,0.00,VWS V14.01,2013-03-04 20:19:00,
2013-03-04 15:25:00,53.6,12.4,30.09,South,174,2.0,2.0,19,0.00,,OVC080,0.00,VWS V14.01,2013-03-04 20:25:00,
2013-03-04 15:29:00,53.7,12.4,30.09,SW,226,3.0,6.0,19,0.00,,OVC080,0.00,VWS V14.01,2013-03-04 20:29:00,
2013-03-04 15:35:00,53.3,12.1,30.09,ESE,110,2.0,4.0,19,0.00,,OVC080,0.00,VWS V14.01,2013-03-04 20:35:00,
2013-03-04 15:40:00,53.6,13.5,30.09,NNE,18,2.0,4.0,20,0.00,,OVC080,0.00,VWS V14.01,2013-03-04 20:40:00,
2013-03-04 15:45:00,54.3,14.1,30.09,SSE,155,3.0,6.0,20,0.00,,OVC080,0.00,VWS V14.01,2013-03-04 20:45:00,
2013-03-04 15:50:00,54.3,11.7,30.09,SSW,195,0.0,2.0,18,0.00,,OVC080,0.00,VWS V14.01,2013-03-04 20:50:00,
2013-03-04 15:55:00,54.3,12.9,30.09,SSW,200,2.0,3.0,19,0.00,,OVC080,0.00,VWS V14.01,2013-03-04 20:55:00,
2013-03-04 16:00:00,54.5,13.1,30.08,SSE,167,3.0,6.0,19,0.00,,OVC080,0.00,VWS V14.01,2013-03-04 21:00:00,
2013-03-04 16:05:00,55.3,14.9,30.08,SSE,156,2.0,2.0,20,0.00,,OVC080,0.00,VWS V14.01,2013-03-04 21:05:00,
2013-03-04 16:10:00,55.4,15.0,30.08,SSW,198,1.0,4.0,20,0.00,,OVC080,0.00,VWS V14.01,2013-03-04 21:10:00,
2013-03-04 16:15:00,55.3,12.5,30.08,SSW,212,1.0,3.0,18,0.00,,OVC080,0.00,VWS V14.01,2013-03-04 21:15:00,
2013-03-04 16:20:00,55.0,12.3,30.08,SW,218,1.0,1.0,18,0.00,,OVC080,0.00,VWS V14.01,2013-03-04 21:20:00,
2013-03-04 16:25:00,55.1,12.4,30.08,South,170,2.0,4.0,18,0.00,,OVC080,0.00,VWS V14.01,2013-03-04 21:25:00,
2013-03-04 16:30:00,54.8,12.1,30.08,SE,134,0.0,0.0,18,0.00,,OVC080,0.00,VWS V14.01,2013-03-04 21:30:00,
2013-03-04 16:35:00,54.8,12.1,30.08,NNE,18,0.0,1.0,18,0.00,,OVC080,0.00,VWS V14.01,2013-03-04 21:35:00,
2013-03-04 16:40:00,55.1,13.6,30.08,WSW,250,0.0,1.0,19,0.00,,OVC080,0.00,VWS V14.01,2013-03-04 21:40:00,
2013-03-04 16:45:00,55.4,13.9,30.08,SSE,153,2.0,3.0,19,0.00,,OVC080,0.00,VWS V14.01,2013-03-04 21:45:00,
2013-03-04 16:50:00,55.2,12.5,30.08,ESE,122,2.0,2.0,18,0.00,,OVC080,0.00,VWS V14.01,2013-03-04 21:50:00,
2013-03-04 16:55:00,55.4,12.6,30.08,SE,143,0.0,0.0,18,0.00,,OVC080,0.00,VWS V14.01,2013-03-04 21:55:00,
2013-03-04 17:00:00,55.7,15.3,30.08,SW,231,3.0,3.0,20,0.00,,OVC080,0.00,VWS V14.01,2013-03-04 22:00:00,
2013-03-04 17:05:00,55.3,11.2,30.08,WNW,300,3.0,3.0,17,0.00,,OVC080,0.00,VWS V14.01,2013-03-04 22:05:00,
2013-03-04 17:10:00,55.1,12.4,30.08,South,191,2.0,3.0,18,0.00,,OVC080,0.00,VWS V14.01,2013-03-04 22:10:00,
2013-03-04 17:15:00,55.0,11.0,30.08,SSW,200,0.0,0.0,17,0.00,,OVC080,0.00,VWS V14.01,2013-03-04 22:15:00,
2013-03-04 17:20:00,54.7,10.8,30.09,SE,131,2.0,2.0,17,0.00,,OVC080,0.00,VWS V14.01,2013-03-04 22:20:00,
2013-03-04 17:25:00,54.4,10.5,30.09,ESE,105,2.0,3.0,17,0.00,,OVC080,0.00,VWS V14.01,2013-03-04 22:25:00,
2013-03-04 17:30:00,54.3,11.7,30.09,SSW,205,0.0,1.0,18,0.00,,OVC080,0.00,VWS V14.01,2013-03-04 22:30:00,
2013-03-04 17:35:00,54.2,11.6,30.09,WSW,253,2.0,2.0,18,0.00,,OVC080,0.00,VWS V14.01,2013-03-04 22:35:00,
2013-03-04 17:40:00,53.8,11.3,30.09,South,183,2.0,3.0,18,0.00,,OVC080,0.00,VWS V14.01,2013-03-04 22:40:00,
2013-03-04 17:45:00,53.5,11.1,30.09,South,186,1.0,2.0,18,0.00,,OVC080,0.00,VWS V14.01,2013-03-04 22:45:00,
2013-03-04 17:50:00,53.2,10.8,30.09,WSW,239,0.0,1.0,18,0.00,,OVC080,0.00,VWS V14.01,2013-03-04 22:50:00,
2013-03-04 17:55:00,52.8,10.5,30.09,SSE,155,1.0,1.0,18,0.00,,OVC080,0.00,VWS V14.01,2013-03-04 22:55:00,
2013-03-04 18:00:00,52.6,15.9,30.09,SSW,194,0.0,0.0,23,0.00,,OVC080,0.00,VWS V14.01,2013-03-04 23:00:00,
2013-03-04 18:05:00,51.9,15.3,30.09,SSW,194,0.0,0.0,23,0.00,,OVC080,0.00,VWS V14.01,2013-03-04 23:05:00,
2013-03-04 18:10:00,51.0,15.5,30.09,SSW,194,0.0,0.0,24,0.00,,OVC080,0.00,VWS V14.01,2013-03-04 23:10:00,
2013-03-04 18:15:00,49.9,16.4,30.09,SSW,194,0.0,0.0,26,0.00,,OVC080,0.00,VWS V14.01,2013-03-04 23:15:00,
2013-03-04 18:20:00,48.9,16.4,30.10,SSW,194,0.0,0.0,27,0.00,,OVC080,0.00,VWS V14.01,2013-03-04 23:20:00,
2013-03-04 18:25:00,47.9,18.0,30.10,SSW,194,0.0,0.0,30,0.00,,OVC080,0.00,VWS V14.01,2013-03-04 23:25:00,
2013-03-04 18:30:00,46.9,17.9,30.10,SSW,194,0.0,0.0,31,0.00,,OVC080,0.00,VWS V14.01,2013-03-04 23:30:00,
2013-03-04 18:35:00,46.0,18.5,30.10,SSW,194,0.0,0.0,33,0.00,,OVC080,0.00,VWS V14.01,2013-03-04 23:35:00,
2013-03-04 18:40:00,45.2,19.9,30.10,SSE,150,0.0,0.0,36,0.00,,OVC080,0.00,VWS V14.01,2013-03-04 23:40:00,
2013-03-04 18:45:00,44.5,19.9,30.11,SSE,150,0.0,0.0,37,0.00,,OVC080,0.00,VWS V14.01,2013-03-04 23:45:00,
2013-03-04 18:50:00,44.0,20.6,30.10,SSE,150,0.0,0.0,39,0.00,,OVC080,0.00,VWS V14.01,2013-03-04 23:50:00,
2013-03-04 18:55:00,43.4,20.7,30.10,SSE,150,0.0,0.0,40,0.00,,OVC080,0.00,VWS V14.01,2013-03-04 23:55:00,
2013-03-04 19:00:00,42.9,23.0,30.10,South,176,0.0,0.0,45,0.00,,OVC080,0.00,VWS V14.01,2013-03-05 00:00:00,
2013-03-04 19:05:00,42.2,22.4,30.10,South,176,0.0,0.0,45,0.00,,OVC080,0.00,VWS V14.01,2013-03-05 00:05:00,
2013-03-04 19:10:00,41.8,22.0,30.10,South,176,0.0,0.0,45,0.00,,OVC080,0.00,VWS V14.01,2013-03-05 00:10:00,
2013-03-04 19:15:00,41.3,23.1,30.11,South,176,0.0,0.0,48,0.00,,OVC080,0.00,VWS V14.01,2013-03-05 00:15:00,
2013-03-04 19:20:00,40.7,24.5,30.11,South,176,0.0,0.0,52,0.00,,OVC080,0.00,VWS V14.01,2013-03-05 00:20:00,
2013-03-04 19:25:00,40.0,23.4,30.11,South,176,0.0,0.0,51,0.00,,OVC080,0.00,VWS V14.01,2013-03-05 00:25:00,
2013-03-04 19:30:00,39.6,22.5,30.11,South,176,0.0,0.0,50,0.00,,OVC080,0.00,VWS V14.01,2013-03-05 00:30:00,
2013-03-04 19:35:00,39.2,22.1,30.11,South,176,0.0,0.0,50,0.00,,OVC080,0.00,VWS V14.01,2013-03-05 00:35:00,
2013-03-04 19:40:00,38.7,22.1,30.11,South,176,0.0,0.0,51,0.00,,OVC080,0.00,VWS V14.01,2013-03-05 00:40:00,
2013-03-04 19:45:00,38.3,21.8,30.11,South,176,0.0,0.0,51,0.00,,OVC080,0.00,VWS V14.01,2013-03-05 00:45:00,
2013-03-04 19:50:00,37.8,22.2,30.11,South,176,0.0,0.0,53,0.00,,OVC080,0.00,VWS V14.01,2013-03-05 00:50:00,
2013-03-04 19:55:00,37.5,24.5,30.11,South,176,0.0,0.0,59,0.00,,OVC080,0.00,VWS V14.01,2013-03-05 00:55:00,
2013-03-04 20:00:00,37.1,24.1,30.11,South,176,0.0,0.0,59,0.00,,OVC080,0.00,VWS V14.01,2013-03-05 01:00:00,
2013-03-04 20:05:00,36.6,23.6,30.11,South,176,0.0,0.0,59,0.00,,OVC080,0.00,VWS V14.01,2013-03-05 01:05:00,
2013-03-04 20:10:00,36.4,23.5,30.11,South,176,0.0,0.0,59,0.00,,OVC080,0.00,VWS V14.01,2013-03-05 01:10:00,
2013-03-04 20:15:00,36.1,23.2,30.11,South,176,0.0,0.0,59,0.00,,OVC080,0.00,VWS V14.01,2013-03-05 01:15:00,
2013-03-04 20:20:00,36.1,23.2,30.10,South,176,0.0,0.0,59,0.00,,OVC080,0.00,VWS V14.01,2013-03-05 01:20:00,
2013-03-04 20:25:00,36.2,23.7,30.10,South,176,0.0,0.0,60,0.00,,OVC080,0.00,VWS V14.01,2013-03-05 01:25:00,
2013-03-04 20:30:00,36.1,24.4,30.11,South,176,0.0,0.0,62,0.00,,OVC080,0.00,VWS V14.01,2013-03-05 01:30:00,
2013-03-04 20:35:00,36.0,24.6,30.11,South,176,0.0,0.0,63,0.00,,OVC080,0.00,VWS V14.01,2013-03-05 01:35:00,
2013-03-04 20:40:00,35.9,24.5,30.11,South,176,0.0,0.0,63,0.00,,OVC080,0.00,VWS V14.01,2013-03-05 01:40:00,
2013-03-04 20:45:00,35.9,24.9,30.12,South,176,0.0,0.0,64,0.00,,OVC080,0.00,VWS V14.01,2013-03-05 01:45:00,
2013-03-04 20:50:00,36.0,25.0,30.12,South,176,0.0,0.0,64,0.00,,OVC080,0.00,VWS V14.01,2013-03-05 01:50:00,
2013-03-04 20:55:00,36.2,25.2,30.12,East,94,0.0,0.0,64,0.00,,OVC080,0.00,VWS V14.01,2013-03-05 01:55:00,
2013-03-04 21:00:00,36.3,25.3,30.12,SSW,212,0.0,0.0,64,0.00,,OVC080,0.00,VWS V14.01,2013-03-05 02:00:00,
2013-03-04 21:05:00,36.3,25.7,30.12,SSW,212,0.0,1.0,65,0.00,,OVC080,0.00,VWS V14.01,2013-03-05 02:05:00,
2013-03-04 21:10:00,36.2,25.6,30.12,East,79,0.0,1.0,65,0.00,,OVC080,0.00,VWS V14.01,2013-03-05 02:10:00,
2013-03-04 21:15:00,36.1,25.5,30.12,East,79,0.0,0.0,65,0.00,,OVC080,0.00,VWS V14.01,2013-03-05 02:15:00,
2013-03-04 21:20:00,35.9,25.7,30.12,East,79,0.0,0.0,66,0.00,,OVC080,0.00,VWS V14.01,2013-03-05 02:20:00,
2013-03-04 21:25:00,35.7,25.1,30.12,WSW,245,0.0,0.0,65,0.00,,OVC080,0.00,VWS V14.01,2013-03-05 02:25:00,
2013-03-04 21:30:00,35.6,25.0,30.12,WSW,245,0.0,0.0,65,0.00,,OVC080,0.00,VWS V14.01,2013-03-05 02:30:00,
2013-03-04 21:35:00,35.3,24.7,30.12,WSW,245,0.0,0.0,65,0.00,,OVC080,0.00,VWS V14.01,2013-03-05 02:35:00,
2013-03-04 21:40:00,35.1,25.3,30.12,WSW,245,0.0,0.0,67,0.00,,OVC080,0.00,VWS V14.01,2013-03-05 02:40:00,
2013-03-04 21:45:00,34.8,25.0,30.12,WSW,245,0.0,0.0,67,0.00,,OVC080,0.00,VWS V14.01,2013-03-05 02:45:00,
2013-03-04 21:50:00,34.6,24.8,30.12,WSW,245,0.0,0.0,67,0.00,,OVC080,0.00,VWS V14.01,2013-03-05 02:50:00,
2013-03-04 21:55:00,34.5,25.0,30.12,WSW,245,0.0,0.0,68,0.00,,OVC080,0.00,VWS V14.01,2013-03-05 02:55:00,
2013-03-04 22:00:00,34.3,24.9,30.12,WSW,245,0.0,0.0,68,0.00,,OVC080,0.00,VWS V14.01,2013-03-05 03:00:00,
2013-03-04 22:05:00,34.3,24.9,30.12,WSW,245,0.0,0.0,68,0.00,,OVC080,0.00,VWS V14.01,2013-03-05 03:05:00,
2013-03-04 22:10:00,34.3,25.2,30.12,WSW,245,0.0,0.0,69,0.00,,OVC080,0.00,VWS V14.01,2013-03-05 03:10:00,
2013-03-04 22:15:00,34.4,25.0,30.12,WSW,245,0.0,0.0,68,0.00,,OVC080,0.00,VWS V14.01,2013-03-05 03:15:00,
2013-03-04 22:20:00,34.7,25.6,30.11,WSW,245,0.0,0.0,69,0.00,,OVC080,0.00,VWS V14.01,2013-03-05 03:20:00,
2013-03-04 22:25:00,34.8,25.7,30.11,WSW,245,0.0,0.0,69,0.00,,OVC080,0.00,VWS V14.01,2013-03-05 03:25:00,
2013-03-04 22:30:00,34.7,25.6,30.11,WSW,245,0.0,0.0,69,0.00,,OVC080,0.00,VWS V14.01,2013-03-05 03:30:00,
2013-03-04 22:35:00,34.7,25.9,30.12,WSW,245,0.0,0.0,70,0.00,,OVC080,0.00,VWS V14.01,2013-03-05 03:35:00,
2013-03-04 22:40:00,34.6,25.8,30.12,WSW,245,0.0,0.0,70,0.00,,OVC080,0.00,VWS V14.01,2013-03-05 03:40:00,
2013-03-04 22:45:00,34.8,26.0,30.12,NW,317,0.0,0.0,70,0.00,,OVC080,0.00,VWS V14.01,2013-03-05 03:45:00,
2013-03-04 22:50:00,35.1,26.3,30.11,NW,318,0.0,0.0,70,0.00,,OVC080,0.00,VWS V14.01,2013-03-05 03:50:00,
2013-03-04 22:55:00,35.1,26.3,30.12,NW,318,0.0,0.0,70,0.00,,OVC080,0.00,VWS V14.01,2013-03-05 03:55:00,
2013-03-04 23:00:00,35.1,26.7,30.12,NW,318,0.0,0.0,71,0.00,,OVC080,0.00,VWS V14.01,2013-03-05 04:00:00,
2013-03-04 23:05:00,34.9,26.1,30.12,NW,317,0.0,0.0,70,0.00,,OVC080,0.00,VWS V14.01,2013-03-05 04:05:00,
2013-03-04 23:10:00,34.7,25.9,30.12,NW,317,0.0,0.0,70,0.00,,OVC080,0.00,VWS V14.01,2013-03-05 04:10:00,
2013-03-04 23:15:00,34.6,25.8,30.12,NW,317,0.0,0.0,70,0.00,,OVC080,0.00,VWS V14.01,2013-03-05 04:15:00,
2013-03-04 23:20:00,34.5,26.1,30.12,NW,317,0.0,0.0,71,0.00,,OVC080,0.00,VWS V14.01,2013-03-05 04:20:00,
2013-03-04 23:25:00,34.5,26.1,30.12,NW,317,0.0,0.0,71,0.00,,OVC080,0.00,VWS V14.01,2013-03-05 04:25:00,
2013-03-04 23:30:00,34.5,26.1,30.11,NW,318,0.0,0.0,71,0.00,,OVC080,0.00,VWS V14.01,2013-03-05 04:30:00,
2013-03-04 23:35:00,34.5,26.1,30.11,NW,317,0.0,0.0,71,0.00,,OVC080,0.00,VWS V14.01,2013-03-05 04:35:00,
2013-03-04 23:40:00,34.5,26.4,30.11,NW,317,0.0,0.0,72,0.00,,OVC080,0.00,VWS V14.01,2013-03-05 04:40:00,
2013-03-04 23:45:00,34.5,26.4,30.11,NW,317,0.0,0.0,72,0.00,,OVC080,0.00,VWS V14.01,2013-03-05 04:45:00,
2013-03-04 23:50:00,34.7,26.6,30.11,NW,318,0.0,0.0,72,0.00,,OVC080,0.00,VWS V14.01,2013-03-05 04:50:00,
2013-03-04 23:55:00,34.9,26.8,30.11,NW,318,0.0,0.0,72,0.00,,OVC080,0.00,VWS V14.01,2013-03-05 04:55:00,